Location: Ostrava
(49.8330°N, 18.2830°E)
Time: 13:00:46
(UTC+02:00)

NOAA 19 - Visible Passes

Search period start: 24 June 2018 00:00
Search period end: 04 July 2018 00:00
Orbit: 842 x 861 km, 99.1° (Epoch: 23 June)

Date Brightness Start Highest point End Pass type
(mag) Time Alt. Az. Time Alt. Az. Time Alt. Az.
27 Jun 7.7 03:57:55 10° NE 04:01:42 18° E 04:05:28 10° SE visible
28 Jun 7.8 03:46:54 10° NE 03:49:56 15° E 03:52:58 10° ESE visible
29 Jun 8.0 03:36:16 10° ENE 03:38:09 12° E 03:40:02 10° ESE visible
